Location: Unspecified
(0.0000°N, 0.0000°E)
Time: 23:54:29
(UTC+00:00)

Vanguard 2 Rocket - Pass Details

Date: 13 December 2018
Orbit: 554 x 3327 km, 32.9° (Epoch: 18 January)

Event Time Altitude Azimuth Distance (km) Brightness Sun altitude
Rises 13:14:19 0° 318° (NW) 4,389 10.4 59.7°
Reaches altitude 10° 13:16:51 10° 323° (NW) 3,708 10.1 59.3°
Maximum altitude 13:26:57 56° 40° (NE) 2,561 9.6 57.7°
Drops below altitude 10° 13:43:57 10° 113° (ESE) 5,990 11.0 54.7°
Sets 13:49:18 0° 116° (ESE) 7,208 11.3 53.7°
